Estación de Odessa

Ultimos registro cada 15 minutos 74
Estación Fecha / Hora Temperatura Humedad Lluvia Velocidad Dirección Radiación Presion
74 Odessa 07-05-2026 19:00 10,6 79 0 1,8 193 0 1027,3
73 Odessa 07-05-2026 18:45 10,8 79 0 1,3 221 0 1027,2
72 Odessa 07-05-2026 18:30 10,9 79 0 0,9 197 0 1026,9
71 Odessa 07-05-2026 18:15 11,2 77 0 0,9 193 0 1027
70 Odessa 07-05-2026 18:00 11,3 76 0 1,3 192 0 1027,2
69 Odessa 07-05-2026 17:45 11,5 77 0 1,3 211 0 1027,5
68 Odessa 07-05-2026 17:30 11,7 77 0 1,8 177 9 1027,3
67 Odessa 07-05-2026 17:15 11,9 76 0 0,9 231 28 1027,2
66 Odessa 07-05-2026 17:00 12,1 75 0 2,2 211 28 1026,9
65 Odessa 07-05-2026 16:45 12,4 74 0 1,3 222 37 1027,3
64 Odessa 07-05-2026 16:30 12,6 72 0 0,9 226 56 1027,2
63 Odessa 07-05-2026 16:15 12,8 71 0 1,3 214 88 1027,2
62 Odessa 07-05-2026 16:00 12,9 70 0 0,4 209 128 1027,1
61 Odessa 07-05-2026 15:45 13,1 71 0 1,3 214 160 1027,4
60 Odessa 07-05-2026 15:30 13,2 70 0 1,3 236 179 1027,7
59 Odessa 07-05-2026 15:15 13,4 68 0 2,7 187 241 1027,5
58 Odessa 07-05-2026 15:00 13,7 70 0 4 215 601 1027,3
57 Odessa 07-05-2026 14:45 13,6 70 0 0,9 222 464 1027,3
56 Odessa 07-05-2026 14:30 13,4 71 0 1,3 195 504 1027,4
55 Odessa 07-05-2026 14:15 13,3 73 0 0,9 220 510 1027,6
54 Odessa 07-05-2026 14:00 13,1 73 0 1,8 160 534 1027,7
53 Odessa 07-05-2026 13:45 12,8 75 0 0,9 187 575 1027,7
52 Odessa 07-05-2026 13:30 12,7 77 0 0,9 214 571 1028,1
51 Odessa 07-05-2026 13:15 12,1 79 0 0,9 225 585 1028
50 Odessa 07-05-2026 13:00 11,9 81 0 1,3 231 622 1028
49 Odessa 07-05-2026 12:45 11,6 83 0 1,3 260 687 1028,3
48 Odessa 07-05-2026 12:30 11,4 82 0 0,9 208 125 1028,3
47 Odessa 07-05-2026 12:15 11,3 83 0 0 154 661 1028,8
46 Odessa 07-05-2026 12:00 10,7 85 0 0,4 199 664 1028,9
45 Odessa 07-05-2026 11:45 10,4 87 0 1,3 212 742 1029,1
44 Odessa 07-05-2026 11:30 9,7 89 0 0 149 598 1028,9
43 Odessa 07-05-2026 11:15 9,5 91 0 2,2 202 155 1029,3
42 Odessa 07-05-2026 11:00 9,1 93 0 0,9 280 281 1028,9
41 Odessa 07-05-2026 10:45 8,7 95 0 1,8 262 211 1029,2
40 Odessa 07-05-2026 10:30 8,2 95 0 0 261 260 1029,1
39 Odessa 07-05-2026 10:15 7,9 95 0 0,4 109 118 1029,1
38 Odessa 07-05-2026 10:00 7,9 96 0 0 193 130 1029,1
37 Odessa 07-05-2026 09:45 7,6 95 0 0 218 142 1028,9
36 Odessa 07-05-2026 09:30 7,4 95 0 1,8 215 137 1029,2
35 Odessa 07-05-2026 09:15 7,4 95 0 1,3 259 63 1029
34 Odessa 07-05-2026 09:00 7,2 95 0 0 249 74 1028,7
33 Odessa 07-05-2026 08:45 7,1 95 0 0,9 222 81 1028,7
32 Odessa 07-05-2026 08:30 7,1 95 0 0,4 231 49 1028,4
31 Odessa 07-05-2026 08:15 7,1 95 0 0 253 25 1028,3
30 Odessa 07-05-2026 08:00 7,2 94 0 1,3 249 12 1028,3
29 Odessa 07-05-2026 07:45 7,3 94 0 0,9 233 7 1028
28 Odessa 07-05-2026 07:30 7,4 94 0 0 246 0 1027,9
27 Odessa 07-05-2026 07:15 7,6 94 0 0 245 0 1027,8
26 Odessa 07-05-2026 07:00 7,6 94 0 0,4 220 0 1027,7
25 Odessa 07-05-2026 06:45 7,7 94 0 0,9 187 0 1027,5
24 Odessa 07-05-2026 06:30 7,7 94 0 0 195 0 1027,5
23 Odessa 07-05-2026 06:15 7,7 94 0 1,3 260 0 1027,6
22 Odessa 07-05-2026 06:00 7,8 94 0 1,8 263 0 1027,3
21 Odessa 07-05-2026 05:45 7,8 93 0 0,4 223 0 1027,2
20 Odessa 07-05-2026 05:30 7,9 93 0 0,9 207 0 1026,9
19 Odessa 07-05-2026 05:15 8 93 0 0,9 211 0 1026,5
18 Odessa 07-05-2026 05:00 8 93 0 0,4 247 0 1026,3
17 Odessa 07-05-2026 04:00 8,4 93 0 1,3 212 0 1025,9
16 Odessa 07-05-2026 03:45 8,4 93 0 0,4 243 0 1025,6
15 Odessa 07-05-2026 03:30 8,4 93 0 1,3 235 0 1025,8
14 Odessa 07-05-2026 03:15 8,4 93 0 0,9 214 0 1025,8
13 Odessa 07-05-2026 03:00 8,3 93 0 0 252 0 1025,7
12 Odessa 07-05-2026 02:45 8,3 93 0 0 238 0 1025,7
11 Odessa 07-05-2026 02:30 8,4 92 0 0,4 271 0 1025,7
10 Odessa 07-05-2026 02:15 8,6 92 0 0,4 223 0 1025,6
9 Odessa 07-05-2026 02:00 8,6 92 0 0 231 0 1025,4
8 Odessa 07-05-2026 01:45 8,6 92 0 0,4 139 0 1025,6
7 Odessa 07-05-2026 01:30 8,7 91 0 0 219 0 1025,2
6 Odessa 07-05-2026 01:15 8,9 91 0 0 204 0 1025
5 Odessa 07-05-2026 01:00 9,2 91 0 0,9 240 0 1024,9
4 Odessa 07-05-2026 00:45 9,4 90 0 1,3 220 0 1024,8
3 Odessa 07-05-2026 00:30 9,7 90 0 0 210 0 1024,9
2 Odessa 07-05-2026 00:15 9,8 90 0 0 235 0 1025
1 Odessa 07-05-2026 00:00 9,8 90 0 0 245 0 1024,5